Time,TemperatureF,DewpointF,PressureIn,WindDirection,WindDirectionDegrees,WindSpeedMPH,WindSpeedGustMPH,Humidity,HourlyPrecipIn,Conditions,Clouds,dailyrainin,SoftwareType,DateUTC
2013-04-30 00:02:00,47.0,35.0,29.54,NW,320,30.0,-999.0,61,-99.99,,,-99.99,,2013-04-30 06:02:00,
2013-04-30 00:12:00,47.0,35.0,29.54,NW,320,30.0,-999.0,61,-99.99,,,-99.99,,2013-04-30 06:12:00,
2013-04-30 00:21:00,46.0,37.0,29.56,NW,316,34.0,-999.0,70,-99.99,,,-99.99,,2013-04-30 06:21:00,
2013-04-30 00:32:00,46.0,37.0,29.56,NW,316,34.0,-999.0,70,-99.99,,,-99.99,,2013-04-30 06:32:00,
2013-04-30 00:41:00,46.0,37.0,29.56,NW,316,34.0,-999.0,70,-99.99,,,-99.99,,2013-04-30 06:41:00,
2013-04-30 00:52:00,45.0,37.0,29.56,NW,323,40.0,-999.0,73,-99.99,,,-99.99,,2013-04-30 06:52:00,
2013-04-30 01:01:00,45.0,36.0,29.58,NNW,328,36.0,-999.0,72,-99.99,,,-99.99,,2013-04-30 07:01:00,
2013-04-30 01:11:00,44.0,36.0,29.57,NNW,333,22.0,-999.0,73,-99.99,,,-99.99,,2013-04-30 07:11:00,
2013-04-30 01:21:00,44.0,36.0,29.59,NW,324,34.0,-999.0,73,-99.99,,,-99.99,,2013-04-30 07:21:00,
2013-04-30 01:31:00,44.0,36.0,29.59,NW,324,34.0,-999.0,73,-99.99,,,-99.99,,2013-04-30 07:31:00,
2013-04-30 01:42:00,44.0,36.0,29.59,NW,318,29.0,-999.0,73,-99.99,,,-99.99,,2013-04-30 07:42:00,
2013-04-30 01:52:00,44.0,35.0,29.60,NW,317,32.0,-999.0,73,-99.99,,,-99.99,,2013-04-30 07:52:00,
2013-04-30 02:02:00,44.0,36.0,29.61,NW,314,23.0,-999.0,74,-99.99,,,-99.99,,2013-04-30 08:02:00,
2013-04-30 02:11:00,43.0,36.0,29.62,NW,314,20.0,-999.0,76,-99.99,,,-99.99,,2013-04-30 08:11:00,
2013-04-30 02:22:00,43.0,36.0,29.63,NW,315,24.0,-999.0,77,-99.99,,,-99.99,,2013-04-30 08:22:00,
2013-04-30 02:32:00,43.0,36.0,29.63,NW,307,21.0,-999.0,77,-99.99,,,-99.99,,2013-04-30 08:32:00,
2013-04-30 02:42:00,43.0,36.0,29.63,NW,312,21.0,-999.0,76,-99.99,,,-99.99,,2013-04-30 08:42:00,
2013-04-30 02:52:00,43.0,35.0,29.66,NW,309,24.0,-999.0,75,-99.99,,,-99.99,,2013-04-30 08:52:00,
2013-04-30 03:01:00,42.0,35.0,29.65,NW,304,20.0,-999.0,76,-99.99,,,-99.99,,2013-04-30 09:01:00,
2013-04-30 03:11:00,42.0,35.0,29.65,NW,304,20.0,-999.0,76,-99.99,,,-99.99,,2013-04-30 09:11:00,
2013-04-30 03:22:00,42.0,35.0,29.65,NW,304,23.0,-999.0,78,-99.99,,,-99.99,,2013-04-30 09:22:00,
2013-04-30 03:33:00,42.0,35.0,29.65,NW,304,23.0,-999.0,78,-99.99,,,-99.99,,2013-04-30 09:33:00,
2013-04-30 03:43:00,42.0,35.0,29.65,NW,304,23.0,-999.0,78,-99.99,,,-99.99,,2013-04-30 09:43:00,
2013-04-30 04:03:00,42.0,36.0,29.68,WNW,295,19.0,-999.0,78,-99.99,,,-99.99,,2013-04-30 10:03:00,
2013-04-30 04:12:00,42.0,36.0,29.68,WNW,295,19.0,-999.0,78,-99.99,,,-99.99,,2013-04-30 10:12:00,
2013-04-30 04:22:00,43.0,36.0,29.69,WNW,295,19.0,-999.0,76,-99.99,,,-99.99,,2013-04-30 10:22:00,
2013-04-30 04:32:00,43.0,36.0,29.69,WNW,295,19.0,-999.0,76,-99.99,,,-99.99,,2013-04-30 10:32:00,
2013-04-30 04:41:00,43.0,36.0,29.69,WNW,295,19.0,-999.0,76,-99.99,,,-99.99,,2013-04-30 10:41:00,
2013-04-30 05:02:00,42.0,32.0,29.68,WNW,301,21.0,-999.0,68,-99.99,,,-99.99,,2013-04-30 11:02:00,
2013-04-30 05:11:00,42.0,32.0,29.68,WNW,301,21.0,-999.0,68,-99.99,,,-99.99,,2013-04-30 11:11:00,
2013-04-30 05:21:00,41.0,32.0,29.69,WNW,301,14.0,-999.0,70,-99.99,,,-99.99,,2013-04-30 11:21:00,
2013-04-30 05:31:00,41.0,32.0,29.69,WNW,301,14.0,-999.0,70,-99.99,,,-99.99,,2013-04-30 11:31:00,
2013-04-30 05:42:00,41.0,32.0,29.69,WNW,301,14.0,-999.0,70,-99.99,,,-99.99,,2013-04-30 11:42:00,
2013-04-30 06:21:00,40.0,29.0,29.71,WNW,299,17.0,-999.0,63,-99.99,,,-99.99,,2013-04-30 12:21:00,
2013-04-30 06:31:00,40.0,29.0,29.71,WNW,299,17.0,-999.0,63,-99.99,,,-99.99,,2013-04-30 12:31:00,
2013-04-30 06:41:00,40.0,29.0,29.71,WNW,299,17.0,-999.0,63,-99.99,,,-99.99,,2013-04-30 12:41:00,
2013-04-30 07:41:00,43.0,23.0,29.76,NW,308,20.0,-999.0,45,-99.99,,,-99.99,,2013-04-30 13:41:00,
2013-04-30 07:52:00,43.0,23.0,29.76,NW,308,20.0,-999.0,45,-99.99,,,-99.99,,2013-04-30 13:52:00,
2013-04-30 08:02:00,43.0,23.0,29.76,NW,308,20.0,-999.0,45,-99.99,,,-99.99,,2013-04-30 14:02:00,
2013-04-30 09:21:00,46.0,18.0,29.78,NW,323,27.0,-999.0,32,-99.99,,,-99.99,,2013-04-30 15:21:00,
2013-04-30 09:32:00,46.0,18.0,29.78,NW,323,27.0,-999.0,32,-99.99,,,-99.99,,2013-04-30 15:32:00,
2013-04-30 09:42:00,46.0,18.0,29.78,NW,323,27.0,-999.0,32,-99.99,,,-99.99,,2013-04-30 15:42:00,
2013-04-30 10:02:00,48.0,21.0,29.78,NW,308,31.0,-999.0,34,-99.99,,,-99.99,,2013-04-30 16:02:00,
2013-04-30 10:12:00,49.0,21.0,29.78,NW,307,21.0,-999.0,33,-99.99,,,-99.99,,2013-04-30 16:12:00,
2013-04-30 10:23:00,49.0,20.0,29.79,WNW,300,22.0,-999.0,32,-99.99,,,-99.99,,2013-04-30 16:23:00,
2013-04-30 10:33:00,49.0,20.0,29.79,NW,314,29.0,-999.0,32,-99.99,,,-99.99,,2013-04-30 16:33:00,
2013-04-30 10:42:00,49.0,20.0,29.79,NW,314,29.0,-999.0,32,-99.99,,,-99.99,,2013-04-30 16:42:00,
2013-04-30 10:52:00,49.0,21.0,29.79,WNW,297,22.0,-999.0,33,-99.99,,,-99.99,,2013-04-30 16:52:00,
2013-04-30 11:02:00,51.0,19.0,29.79,NNW,332,30.0,-999.0,28,-99.99,,,-99.99,,2013-04-30 17:02:00,
2013-04-30 11:12:00,50.0,17.0,29.77,NW,307,26.0,-999.0,26,-99.99,,,-99.99,,2013-04-30 17:12:00,
2013-04-30 11:22:00,50.0,16.0,29.78,NW,316,30.0,-999.0,26,-99.99,,,-99.99,,2013-04-30 17:22:00,
2013-04-30 11:32:00,50.0,16.0,29.78,NW,316,30.0,-999.0,26,-99.99,,,-99.99,,2013-04-30 17:32:00,
2013-04-30 11:42:00,50.0,16.0,29.78,NW,316,30.0,-999.0,26,-99.99,,,-99.99,,2013-04-30 17:42:00,
2013-04-30 11:52:00,50.0,16.0,29.80,NW,323,24.0,-999.0,26,-99.99,,,-99.99,,2013-04-30 17:52:00,
2013-04-30 12:01:00,51.0,18.0,29.81,NW,305,27.0,-999.0,27,-99.99,,,-99.99,,2013-04-30 18:01:00,
2013-04-30 12:11:00,51.0,17.0,29.80,WNW,303,19.0,-999.0,25,-99.99,,,-99.99,,2013-04-30 18:11:00,
2013-04-30 12:22:00,50.0,16.0,29.82,NW,308,22.0,-999.0,25,-99.99,,,-99.99,,2013-04-30 18:22:00,
2013-04-30 12:32:00,52.0,18.0,29.80,NW,314,19.0,-999.0,26,-99.99,,,-99.99,,2013-04-30 18:32:00,
2013-04-30 12:42:00,52.0,17.0,29.81,NNW,339,24.0,-999.0,25,-99.99,,,-99.99,,2013-04-30 18:42:00,
2013-04-30 12:51:00,53.0,17.0,29.81,NNW,327,19.0,-999.0,24,-99.99,,,-99.99,,2013-04-30 18:51:00,
2013-04-30 13:01:00,51.0,16.0,29.80,NNW,332,17.0,-999.0,24,-99.99,,,-99.99,,2013-04-30 19:01:00,
2013-04-30 13:11:00,51.0,17.0,29.82,NNW,332,25.0,-999.0,25,-99.99,,,-99.99,,2013-04-30 19:11:00,
2013-04-30 13:22:00,51.0,15.0,29.83,NW,308,24.0,-999.0,24,-99.99,,,-99.99,,2013-04-30 19:22:00,
2013-04-30 13:32:00,51.0,15.0,29.81,NW,309,26.0,-999.0,24,-99.99,,,-99.99,,2013-04-30 19:32:00,
2013-04-30 13:42:00,51.0,16.0,29.81,NW,320,26.0,-999.0,24,-99.99,,,-99.99,,2013-04-30 19:42:00,
2013-04-30 13:52:00,51.0,17.0,29.80,North,-999,21.0,-999.0,25,-99.99,,,-99.99,,2013-04-30 19:52:00,
2013-04-30 14:02:00,51.0,17.0,29.80,North,-999,21.0,-999.0,25,-99.99,,,-99.99,,2013-04-30 20:02:00,
2013-04-30 14:11:00,52.0,16.0,29.82,West,264,21.0,-999.0,24,-99.99,,,-99.99,,2013-04-30 20:11:00,
2013-04-30 14:21:00,52.0,17.0,29.81,NW,324,19.0,-999.0,25,-99.99,,,-99.99,,2013-04-30 20:21:00,
2013-04-30 14:32:00,51.0,16.0,29.82,NW,321,27.0,-999.0,25,-99.99,,,-99.99,,2013-04-30 20:32:00,
2013-04-30 14:42:00,54.0,17.0,29.82,NW,323,20.0,-999.0,23,-99.99,,,-99.99,,2013-04-30 20:42:00,
2013-04-30 14:52:00,52.0,16.0,29.84,NNW,329,22.0,-999.0,24,-99.99,,,-99.99,,2013-04-30 20:52:00,
2013-04-30 15:02:00,52.0,16.0,29.84,NNW,329,22.0,-999.0,24,-99.99,,,-99.99,,2013-04-30 21:02:00,
2013-04-30 15:11:00,51.0,17.0,29.84,North,-999,21.0,-999.0,25,-99.99,,,-99.99,,2013-04-30 21:11:00,
2013-04-30 15:22:00,51.0,16.0,29.84,NNW,343,21.0,-999.0,24,-99.99,,,-99.99,,2013-04-30 21:22:00,
2013-04-30 15:32:00,51.0,18.0,29.87,NW,318,16.0,-999.0,26,-99.99,,,-99.99,,2013-04-30 21:32:00,
2013-04-30 15:42:00,51.0,18.0,29.87,NW,318,16.0,-999.0,26,-99.99,,,-99.99,,2013-04-30 21:42:00,
2013-04-30 15:52:00,50.0,15.0,29.87,NW,311,22.0,-999.0,24,-99.99,,,-99.99,,2013-04-30 21:52:00,
2013-04-30 16:02:00,51.0,16.0,29.89,NW,310,19.0,-999.0,25,-99.99,,,-99.99,,2013-04-30 22:02:00,
2013-04-30 16:12:00,50.0,16.0,29.87,NW,321,15.0,-999.0,25,-99.99,,,-99.99,,2013-04-30 22:12:00,
2013-04-30 16:23:00,50.0,16.0,29.89,NNW,330,21.0,-999.0,25,-99.99,,,-99.99,,2013-04-30 22:23:00,
2013-04-30 16:32:00,50.0,16.0,29.88,NNW,342,17.0,-999.0,26,-99.99,,,-99.99,,2013-04-30 22:32:00,
2013-04-30 16:42:00,50.0,17.0,29.91,NW,317,18.0,-999.0,27,-99.99,,,-99.99,,2013-04-30 22:42:00,
2013-04-30 16:52:00,50.0,17.0,29.91,NNW,339,13.0,-999.0,27,-99.99,,,-99.99,,2013-04-30 22:52:00,
2013-04-30 17:02:00,49.0,17.0,29.91,NW,312,18.0,-999.0,28,-99.99,,,-99.99,,2013-04-30 23:02:00,
2013-04-30 17:12:00,49.0,18.0,29.92,NW,320,13.0,-999.0,28,-99.99,,,-99.99,,2013-04-30 23:12:00,
2013-04-30 17:22:00,49.0,18.0,29.94,NNW,335,18.0,-999.0,28,-99.99,,,-99.99,,2013-04-30 23:22:00,
2013-04-30 17:32:00,50.0,18.0,29.92,NNW,336,15.0,-999.0,28,-99.99,,,-99.99,,2013-04-30 23:32:00,
2013-04-30 17:42:00,49.0,17.0,29.95,WNW,302,21.0,-999.0,28,-99.99,,,-99.99,,2013-04-30 23:42:00,
2013-04-30 17:52:00,48.0,18.0,29.93,NW,304,17.0,-999.0,30,-99.99,,,-99.99,,2013-04-30 23:52:00,
2013-04-30 18:02:00,48.0,17.0,29.94,NNW,342,24.0,-999.0,29,-99.99,,,-99.99,,2013-05-01 00:02:00,
2013-04-30 18:11:00,48.0,18.0,29.95,North,5,15.0,-999.0,30,-99.99,,,-99.99,,2013-05-01 00:11:00,
2013-04-30 18:22:00,47.0,18.0,29.97,NNW,334,16.0,-999.0,30,-99.99,,,-99.99,,2013-05-01 00:22:00,
2013-04-30 18:32:00,47.0,19.0,29.95,NNW,342,18.0,-999.0,33,-99.99,,,-99.99,,2013-05-01 00:32:00,
2013-04-30 18:42:00,47.0,19.0,29.95,NNW,342,18.0,-999.0,33,-99.99,,,-99.99,,2013-05-01 00:42:00,
2013-04-30 18:52:00,45.0,20.0,29.95,NNW,343,24.0,-999.0,36,-99.99,,,-99.99,,2013-05-01 00:52:00,
2013-04-30 19:01:00,45.0,20.0,29.95,NNW,343,24.0,-999.0,36,-99.99,,,-99.99,,2013-05-01 01:01:00,
2013-04-30 19:11:00,45.0,21.0,29.97,NNW,342,17.0,-999.0,39,-99.99,,,-99.99,,2013-05-01 01:11:00,
2013-04-30 19:21:00,44.0,21.0,29.98,NNW,337,17.0,-999.0,40,-99.99,,,-99.99,,2013-05-01 01:21:00,
2013-04-30 19:32:00,44.0,22.0,30.00,North,-999,17.0,-999.0,41,-99.99,,,-99.99,,2013-05-01 01:32:00,
2013-04-30 19:42:00,44.0,22.0,30.00,NNW,327,18.0,-999.0,42,-99.99,,,-99.99,,2013-05-01 01:42:00,
2013-04-30 19:52:00,44.0,23.0,30.00,NNW,344,14.0,-999.0,44,-99.99,,,-99.99,,2013-05-01 01:52:00,
2013-04-30 20:02:00,43.0,23.0,30.00,NNW,338,13.0,-999.0,44,-99.99,,,-99.99,,2013-05-01 02:02:00,
2013-04-30 20:11:00,43.0,23.0,30.02,NNW,344,13.0,-999.0,45,-99.99,,,-99.99,,2013-05-01 02:11:00,
2013-04-30 20:21:00,43.0,24.0,30.02,NNW,344,12.0,-999.0,47,-99.99,,,-99.99,,2013-05-01 02:21:00,
2013-04-30 20:32:00,43.0,21.0,29.99,North,-999,17.0,-999.0,42,-99.99,,,-99.99,,2013-05-01 02:32:00,
2013-04-30 20:42:00,43.0,23.0,30.03,South,175,11.0,-999.0,45,-99.99,,,-99.99,,2013-05-01 02:42:00,
2013-04-30 20:52:00,43.0,23.0,30.02,East,88,14.0,-999.0,45,-99.99,,,-99.99,,2013-05-01 02:52:00,
2013-04-30 21:02:00,43.0,23.0,30.03,West,260,11.0,-999.0,45,-99.99,,,-99.99,,2013-05-01 03:02:00,
2013-04-30 21:11:00,43.0,23.0,30.05,North,-999,9.0,-999.0,46,-99.99,,,-99.99,,2013-05-01 03:11:00,
2013-04-30 21:21:00,42.0,24.0,30.08,West,259,7.0,-999.0,48,-99.99,,,-99.99,,2013-05-01 03:21:00,
2013-04-30 21:33:00,42.0,25.0,30.09,NNE,23,6.0,-999.0,50,-99.99,,,-99.99,,2013-05-01 03:33:00,
2013-04-30 21:43:00,42.0,24.0,30.07,North,1,12.0,-999.0,48,-99.99,,,-99.99,,2013-05-01 03:43:00,
2013-04-30 21:53:00,42.0,23.0,30.04,North,8,11.0,-999.0,48,-99.99,,,-99.99,,2013-05-01 03:53:00,
2013-04-30 22:03:00,42.0,23.0,30.06,North,4,13.0,-999.0,48,-99.99,,,-99.99,,2013-05-01 04:03:00,
2013-04-30 22:12:00,42.0,23.0,30.08,North,10,11.0,-999.0,47,-99.99,,,-99.99,,2013-05-01 04:12:00,
2013-04-30 22:22:00,41.0,23.0,30.12,North,3,12.0,-999.0,47,-99.99,,,-99.99,,2013-05-01 04:22:00,
2013-04-30 22:32:00,41.0,21.0,30.10,South,173,13.0,-999.0,44,-99.99,,,-99.99,,2013-05-01 04:32:00,
2013-04-30 22:43:00,41.0,19.0,30.11,North,3,20.0,-999.0,41,-99.99,,,-99.99,,2013-05-01 04:43:00,
2013-04-30 22:52:00,41.0,20.0,30.13,East,89,14.0,-999.0,42,-99.99,,,-99.99,,2013-05-01 04:52:00,
2013-04-30 23:02:00,40.0,20.0,30.11,NNE,18,14.0,-999.0,43,-99.99,,,-99.99,,2013-05-01 05:02:00,
2013-04-30 23:11:00,40.0,19.0,30.12,North,6,22.0,-999.0,41,-99.99,,,-99.99,,2013-05-01 05:11:00,
2013-04-30 23:21:00,40.0,18.0,30.12,North,5,17.0,-999.0,41,-99.99,,,-99.99,,2013-05-01 05:21:00,
2013-04-30 23:32:00,39.0,18.0,30.11,North,6,19.0,-999.0,42,-99.99,,,-99.99,,2013-05-01 05:32:00,
2013-04-30 23:42:00,39.0,19.0,30.13,North,5,20.0,-999.0,43,-99.99,,,-99.99,,2013-05-01 05:42:00,
2013-04-30 23:52:00,39.0,19.0,30.12,WSW,255,13.0,-999.0,44,-99.99,,,-99.99,,2013-05-01 05:52:00,